Location: Mississauga
(43.5802°N, 79.6166°W)
Time: 04:40:56
(UTC-04:00)

Cosmos 1437 Rocket - Visible Passes

Search period start: 25 June 2016 00:00
Search period end: 05 July 2016 00:00
Orbit: 508 x 568 km, 81.2° (Epoch: 24 June)

Date Brightness Start Highest point End Pass type
(mag) Time Alt. Az. Time Alt. Az. Time Alt. Az.
25 Jun 3.3 22:12:40 10° NNW 22:16:24 55° W 22:20:09 10° S visible
26 Jun 3.3 22:04:36 10° NNW 22:08:20 54° W 22:12:05 10° S visible
27 Jun 3.4 21:56:32 10° NNW 22:00:15 54° W 22:04:00 10° S visible
28 Jun 3.4 21:48:27 10° NNW 21:52:10 53° W 21:55:56 10° S visible
29 Jun 3.5 21:40:22 10° NNW 21:44:06 52° W 21:47:50 10° S visible
30 Jun 3.5 21:32:16 10° NNW 21:36:01 52° W 21:39:46 10° S visible
